Tracking 32460 objects as of 12-Dec-2025
HD Live streaming from Space Station
objects crossing your sky now

COSMOS 509

Track COSMOS 509 now!
10-day predictions
COSMOS 509 is classified as:


NORAD ID: 6122
Int'l Code: 1972-057F
Perigee: 1,479.7 km
Apogee: 1,505.6 km
Inclination: 74.0 °
Period: 115.7 minutes
Semi major axis: 7863 km
RCS: 0.7159 m2 (medium)
Launch date: July 20, 1972
Source: Commonwealth of Independent States (former USSR) (CIS)
Launch site: PLESETSK MISSILE AND SPACE COMPLEX (PKMTR)
Your satellite tracking list
Your tracking list is empty




NASA's NSSDC Master Catalog

Two Line Element Set (TLE):
1 06122U 72057F   25345.83085100  .00000010  00000-0  17758-3 0  9998
2 06122  74.0268 108.3477 0016449 257.9486 219.8843 12.44994146426679
Source of the keplerian elements: AFSPC